カタログに戻る

STARLINK-34412

運用中通信VLEO
NORAD 66132·PAYLOAD·🇺🇸 United States

打ち上げ Oct 22, 2025 から Vandenberg Space Force Base

Loading…

次のパス (今後24時間)

TLE

最新Source: CelesTrak SupGP

元期: Sep 14, 2026, 14:49 UTC

1 66132C 25237U   26257.61784722 -.00028863  00000+0 -85305-3 0  2575
2 66132  53.1569 239.1451 0001400  90.2948  50.4864 15.34394725    12

AllMySatでSTARLINK-34412をリアルタイム追跡

Download on the App Store